Simultaneous Nadir Overpasses (SNOs) Predictions

Prediction of SNOs between TERRA and METOP-C Satellite Orbit:

Table of predicted SNOs for the next 14.0 days since TLE Epoch: 11/13/2021
Index Date (TERRA) Time (TERRA) Lat,Lon (TERRA) SZA (TERRA ) Date (METOP-C) Time (METOP-C) Lat,Lon (METOP-C) SZA (METOP-C ) Distance(km) Time Diff (sec)
1 11/14/2021 00:00:03 81.21,-136.47 102.14 11/13/2021 23:59:31 81.21,-136.40 102.14 1.40 32
2 11/14/2021 00:49:29 -81.22, 31.43 77.82 11/14/2021 00:50:11 -81.23, 31.49 77.79 1.06 42
3 11/16/2021 19:34:14 81.23, -69.73 102.88 11/16/2021 19:33:54 81.22, -69.86 102.85 2.34 20
4 11/16/2021 20:23:41 -81.22, 97.83 77.13 11/16/2021 20:24:34 -81.23, 98.00 77.08 3.17 53
5 11/19/2021 15:08:26 81.22, -3.41 103.51 11/19/2021 15:08:17 81.22, -3.33 103.51 1.27 9
6 11/19/2021 15:57:52 -81.24, 164.54 76.44 11/19/2021 15:58:57 -81.23, 164.49 76.42 1.12 65
7 11/22/2021 09:53:11 -81.21,-104.79 75.94 11/22/2021 09:52:00 -81.21,-104.70 75.96 1.65 71
8 11/22/2021 10:42:37 81.21, 62.88 104.08 11/22/2021 10:42:40 81.21, 62.79 104.07 1.53 3
9 11/25/2021 05:27:23 -81.20, -38.53 75.42 11/25/2021 05:26:24 -81.20, -38.63 75.45 1.80 59



Historial Predications of SNOs between TERRA and METOP-C
